Lapse_Rate
2.8 2.1 1.8 2.2 2.4 2.3 2.1 1.7 1.5 1.6 1.4 2.0 2.9 3.3 3.3 3.5 3.3 2.9 3.5 4.7 5.0 5.8 5.9 6.1 6.0 6.2 6.1 5.9 6.0 6.1 6.3 6.7 7.1 8.0 8.4 8.0 7.9 7.9 7.3 6.9 5.8 4.8 4.5
3.1 2.9 2.7 2.5 2.4 2.9 3.0 2.6 2.3 2.0 1.9 2.2 2.7 3.3 3.7 3.8 3.4 2.9 3.1 3.8 4.9 5.4 5.9 6.1 6.6 6.5 6.4 5.9 5.7 5.9 6.1 6.5 7.7 7.9 8.0 8.5 8.0 8.2 6.9 6.3 5.1 4.5 4.6
4.4 4.6 3.9 4.0 2.9 2.7 3.6 3.3 2.8 2.9 2.7 2.5 3.1 3.7 4.3 4.3 3.8 3.1 3.0 3.3 3.6 4.9 5.3 5.5 5.9 6.6 6.4 6.3 5.9 6.0 6.0 6.4 7.1 7.6 7.8 8.4 8.3 7.6 6.4 5.0 4.6 4.8 4.9
5.6 4.7 4.9 4.5 4.8 4.0 2.9 3.5 3.5 3.3 3.5 3.3 3.4 3.8 4.8 4.8 3.8 3.4 3.3 3.2 3.4 3.9 4.3 5.1 5.2 5.9 6.4 6.4 6.0 6.2 6.1 5.9 6.2 6.7 7.5 8.0 7.8 7.2 7.0 5.0 4.6 4.5 4.6
5.8 4.7 5.1 5.4 4.4 4.3 3.9 3.9 3.5 3.5 3.8 4.2 4.3 3.1 3.3 4.7 4.6 4.3 3.7 3.3 3.1 3.2 3.6 4.0 4.8 5.0 5.6 6.0 6.3 6.4 6.4 6.1 5.9 6.2 6.8 7.3 7.5 6.2 6.9 5.2 4.9 4.6 4.6
2.1 4.1 5.6 6.0 4.9 4.1 4.1 3.9 4.2 3.0 4.3 4.2 5.5 4.3 3.1 3.6 2.8 3.9 3.8 3.8 3.4 3.0 3.3 3.2 3.6 4.1 5.0 5.3 5.6 6.4 6.8 6.9 6.4 6.1 6.3 6.1 5.9 5.4 5.2 4.4 4.5 4.8 5.0
1.2 1.4 2.5 5.5 6.2 5.7 5.2 3.9 3.7 3.1 3.3 4.6 2.6 2.2 1.5 2.8 2.6 3.8 3.8 3.6 3.0 2.7 2.9 2.6 3.1 3.6 3.4 4.4 4.9 5.7 6.9 7.2 7.7 6.6 6.0 5.8 6.5 5.2 4.9 4.4 4.5 4.9 4.9
0.4 1.6 2.8 3.1 3.3 6.2 6.3 5.0 4.5 4.0 3.1 3.5 4.8 2.8 2.9 3.5 3.8 3.4 3.5 3.9 3.1 2.9 2.3 2.6 2.8 3.0 3.7 3.8 4.1 5.0 5.9 7.0 7.0 7.4 7.3 6.3 6.4 6.0 4.9 4.2 4.4 4.8 4.9
0.2 0.7 2.1 3.4 4.2 4.5 6.1 6.8 5.2 4.3 4.6 3.3 3.8 3.4 2.6 4.2 3.4 1.9 3.0 3.8 3.5 3.2 3.0 3.0 3.0 2.8 3.2 4.0 3.9 4.1 4.8 5.6 6.9 7.0 7.1 6.9 6.4 6.1 5.5 4.9 4.2 4.7 4.9
1.0 1.8 1.6 1.9 3.2 4.0 5.2 6.4 6.7 5.8 4.6 5.1 3.2 3.5 2.8 3.3 3.9 4.6 3.0 3.2 4.0 4.0 3.4 3.3 3.3 3.1 3.3 3.6 3.7 3.9 3.7 4.6 5.3 6.5 6.8 6.5 6.2 6.1 5.9 5.2 4.5 4.4 5.0
2.3 3.1 3.4 2.8 3.3 3.1 4.4 6.0 5.8 5.6 5.7 6.1 6.0 4.5 5.1 5.0 4.4 5.8 6.7 3.9 3.5 3.3 3.3 3.3 3.2 3.2 3.3 3.6 3.6 3.7 3.3 3.5 4.3 5.4 6.3 6.3 6.2 6.0 5.9 6.0 5.2 4.7 4.7
2.9 4.2 4.0 2.9 2.9 3.1 3.0 4.8 6.1 5.0 5.5 5.8 5.4 5.1 5.9 6.5 5.8 5.1 4.3 3.7 4.0 3.5 3.4 3.2 3.2 3.0 3.0 3.0 3.5 3.5 2.2 2.5 2.8 3.9 5.1 5.9 6.0 5.9 5.8 6.0 6.0 5.4 4.9
4.8 5.1 4.5 3.4 3.0 3.9 2.8 3.6 5.6 4.2 5.1 5.3 5.3 5.4 5.5 6.0 4.8 4.8 4.9 5.3 5.4 5.2 4.6 4.4 4.0 3.6 3.5 3.1 3.4 2.6 1.9 1.5 1.9 2.6 3.8 4.8 5.5 5.5 5.8 5.7 6.0 6.0 5.5
4.5 4.9 4.9 4.5 4.2 4.0 4.5 4.1 4.6 4.9 4.2 4.0 4.2 4.5 4.6 4.2 3.8 3.9 4.4 4.4 3.9 4.3 4.9 5.1 4.1 3.9 3.9 3.8 3.5 1.7 2.9 0.6 1.0 1.7 2.6 3.6 4.5 4.8 5.1 5.3 5.5 5.9 5.9
5.2 4.9 5.0 4.6 4.2 4.1 4.3 5.7 4.0 4.4 3.8 3.9 4.2 3.1 3.2 2.8 2.6 3.0 4.9 4.6 4.4 6.0 6.7 4.0 4.0 4.1 4.0 3.8 3.6 2.5 2.6 0.3 -0.2 1.0 1.6 2.5 3.5 4.2 4.1 4.5 4.8 5.2 5.5
4.4 4.4 5.2 5.0 5.4 2.8 2.3 5.6 4.1 3.0 3.5 3.3 3.1 2.8 2.9 3.0 3.4 3.5 4.2 4.3 4.7 5.9 6.3 4.4 4.2 3.5 4.0 4.4 4.5 3.4 3.0 2.3 -0.6 -0.2 0.7 1.4 2.3 3.4 3.2 3.6 3.9 4.4 4.7
4.8 4.4 5.1 6.2 6.0 3.4 1.2 0.6 4.2 3.4 3.4 2.7 2.7 2.8 3.1 3.4 3.6 4.2 4.8 4.9 5.1 5.4 6.0 4.1 3.4 3.5 3.2 3.6 3.5 3.3 3.5 2.9 1.4 -0.4 -0.0 0.4 1.1 2.0 2.3 2.4 2.8 3.3 3.8
5.1 4.4 5.6 6.9 5.8 3.3 3.2 2.8 -0.5 1.2 4.3 4.3 4.0 3.7 3.7 4.2 5.0 5.1 5.1 5.7 5.6 5.2 5.6 4.6 3.2 3.5 3.7 3.7 3.8 3.1 2.8 2.6 3.0 -0.2 -0.9 -0.3 0.4 0.9 1.4 1.5 1.6 2.1 2.8
5.4 5.2 6.1 6.1 5.3 3.3 2.2 3.1 1.5 0.9 1.3 2.0 2.6 3.5 4.2 4.6 5.4 5.2 5.2 5.6 5.4 5.0 4.5 4.6 4.5 3.3 4.0 2.6 3.6 2.7 3.3 2.7 2.0 2.8 -1.2 -1.0 -0.4 0.1 0.4 0.8 1.1 1.1 1.7
6.0 5.9 5.9 6.5 5.5 4.0 2.3 2.3 1.6 2.3 3.6 3.0 2.8 2.4 1.2 0.7 0.6 0.6 1.6 0.8 1.5 4.4 4.9 5.0 4.8 3.8 2.6 1.4 2.8 3.2 2.6 0.3 1.4 -1.0 -0.7 -0.5 -0.7 -0.6 -0.2 0.1 0.5 0.5 0.9
6.1 6.0 5.7 6.0 6.0 5.1 3.9 1.6 1.7 2.5 4.9 4.1 3.3 2.6 0.6 -0.4 -1.6 -2.5 -1.2 -1.5 -0.9 0.9 2.8 4.6 5.0 0.7 1.0 1.1 2.7 2.6 4.0 2.2 0.6 -1.9 -0.6 -0.1 -0.2 -0.5 -0.2 -0.8 1.0 0.5 0.4
6.4 6.0 5.6 6.4 6.4 5.7 5.0 2.7 1.9 2.0 2.7 2.8 3.1 2.9 2.4 -0.6 -1.3 -2.6 -3.2 -2.8 -2.8 -0.8 0.8 2.6 4.5 2.4 2.5 2.4 1.4 2.5 2.5 -0.4 2.3 -3.1 -1.0 0.5 -2.2 -0.1 0.7 0.2 0.3 0.1 -0.6
7.5 6.7 6.2 6.2 6.0 6.0 5.4 3.3 1.7 0.6 2.7 2.5 2.9 2.6 1.9 1.0 -1.4 -1.8 -2.4 -1.9 -1.9 -2.5 -3.9 -1.3 0.7 3.0 3.5 2.0 2.8 1.8 2.1 1.5 3.2 -2.1 0.2 1.2 -5.2 -0.7 -4.7 -3.5 -2.6 -1.4 -1.1
7.2 6.9 6.5 6.6 6.2 6.1 6.2 4.3 1.7 1.4 1.8 2.5 -0.4 0.1 2.9 2.2 -0.3 -2.7 -3.4 -2.7 -2.5 -2.1 -1.5 -1.6 -1.5 -0.6 0.3 1.4 2.0 3.6 3.2 0.4 -3.6 -4.5 -3.6 -0.3 -5.4 -3.4 -6.2 -6.1 -4.1 -3.4 -2.8
7.3 6.6 6.8 6.0 6.1 5.8 6.4 4.7 2.2 1.9 2.3 1.4 1.7 2.8 3.8 2.9 1.8 -1.1 -2.7 -3.0 -2.6 -2.7 -2.4 -2.4 -2.5 -2.9 -3.7 -3.6 -2.4 -0.9 -1.2 -1.2 -1.5 -2.9 -4.4 -1.6 -4.6 -4.5 -5.0 -5.5 -6.0 -4.6 -3.4
7.0 6.9 7.3 7.3 6.8 5.7 5.6 5.4 5.2 4.0 2.8 2.6 1.7 1.4 2.2 3.0 1.4 0.2 -1.1 -1.6 -2.0 -2.4 -3.4 -3.2 -2.6 -2.8 -2.8 -2.3 -1.8 -0.3 1.2 2.8 -2.5 -2.2 -4.2 -0.7 -4.5 -3.8 -2.1 -5.7 -5.9 -6.4 -6.2
Wind_Speed
5 5 6 9 10 11 10 7 7 7 7 10 11 9 7 11 12 12 15 26 25 23 21 22 22 20 20 21 20 20 19 19 19 18 19 18 17 17 16 15 15 16 15
7 6 5 7 7 12 12 10 6 8 8 7 9 10 8 12 13 14 15 19 27 24 23 23 24 22 21 21 21 21 20 20 19 19 20 19 18 17 16 15 16 15 15
13 10 6 7 7 14 13 10 7 7 6 6 10 9 8 12 13 13 16 16 20 27 26 24 22 23 22 22 22 22 22 22 21 20 20 21 17 17 18 17 18 16 15
18 8 8 8 11 11 9 8 8 7 8 7 7 8 8 7 11 15 16 17 17 18 24 26 23 23 24 25 25 24 23 23 22 23 22 19 19 19 19 19 18 18 16
17 8 9 9 10 8 8 9 8 10 9 9 8 6 7 8 11 12 12 17 20 19 19 24 27 25 24 24 26 25 24 24 25 26 25 24 22 21 21 20 19 18 17
25 16 11 11 9 7 9 8 11 11 10 11 10 8 7 7 6 9 13 14 17 20 21 19 21 22 27 24 26 27 25 25 26 27 27 26 24 22 21 21 20 20 20
22 16 11 14 11 12 14 12 11 12 11 10 4 3 5 8 6 8 9 10 11 16 17 19 18 18 20 27 26 28 28 28 27 27 28 27 27 25 24 23 22 22 21
24 16 14 13 14 14 15 15 14 11 10 9 10 2 4 4 8 7 7 9 11 10 11 16 18 20 19 20 23 29 30 30 31 30 29 29 28 28 27 25 24 24 23
21 21 15 14 15 13 14 16 16 18 13 11 16 5 2 6 3 3 9 9 10 9 10 10 17 20 22 21 23 27 31 31 30 31 31 31 31 30 30 28 28 26 25
19 21 18 15 15 12 15 17 14 16 14 13 6 8 3 2 3 3 2 12 11 12 12 10 11 15 20 21 25 28 32 35 31 30 32 32 32 32 32 31 29 27 27
19 20 18 18 18 13 15 18 16 15 12 16 12 4 6 5 3 9 16 6 4 8 7 8 10 9 17 20 20 25 34 38 36 31 31 33 34 33 33 32 31 30 29
14 16 17 18 17 15 17 15 17 18 19 13 10 11 12 8 10 5 2 2 8 4 7 8 9 9 14 18 23 28 35 36 37 34 31 33 35 35 35 33 32 32 31
13 16 19 18 16 19 19 17 17 15 14 11 11 9 11 13 6 5 4 0 2 2 3 7 10 10 12 17 21 29 32 35 36 36 33 33 34 36 35 35 34 33 32
12 18 18 19 21 21 20 17 13 11 9 9 11 11 8 9 8 8 7 7 6 10 10 9 7 10 10 16 22 29 24 33 33 34 34 33 33 35 36 35 35 34 33
12 16 18 19 21 20 20 17 12 11 7 9 10 10 9 8 7 6 7 8 7 7 10 5 6 11 9 11 16 16 22 25 32 34 34 33 34 34 35 35 35 34 34
15 17 16 18 17 18 19 15 10 7 8 6 6 10 9 7 8 7 7 6 7 8 7 6 7 5 11 9 16 16 20 23 30 32 34 34 34 36 35 35 35 34 33
16 16 17 16 13 16 19 19 9 8 11 8 6 8 8 6 4 4 6 6 7 8 9 5 5 6 7 9 9 13 18 16 17 32 33 33 34 34 34 35 35 35 35
16 15 16 14 12 14 18 17 18 18 2 8 5 5 5 4 9 9 8 11 9 9 8 8 5 5 9 9 11 11 10 13 13 21 28 29 31 33 33 35 36 36 35
16 15 14 14 14 14 14 16 15 15 12 7 7 8 5 3 3 3 5 6 7 5 7 4 4 3 7 3 7 7 8 11 9 17 26 29 31 31 32 34 35 36 38
15 14 15 13 11 12 15 14 15 16 14 9 10 12 13 11 9 7 6 5 5 2 4 4 6 3 2 2 4 6 5 3 6 4 11 18 25 29 31 32 34 36 36
13 13 14 12 12 11 11 15 13 12 13 13 12 11 12 13 14 14 7 7 6 4 3 2 5 2 3 2 5 4 9 5 5 4 6 6 7 8 13 22 28 32 33
11 11 14 13 10 10 21 23 17 8 12 13 11 10 9 14 12 14 15 10 6 4 3 2 1 4 5 4 3 5 4 3 4 3 6 6 5 7 8 14 26 26 28
13 11 12 13 13 11 24 26 24 14 11 11 8 8 11 9 13 11 14 12 8 8 4 4 4 4 3 5 5 5 6 6 5 1 4 5 2 8 3 5 10 21 23
13 12 12 12 12 12 25 28 27 12 11 11 15 14 10 8 11 12 10 9 7 6 5 4 6 8 8 9 8 6 9 4 2 1 2 3 1 3 2 1 4 8 12
11 11 11 13 13 13 25 26 20 11 10 11 8 8 9 7 17 18 8 8 9 5 4 7 10 13 15 16 11 1 2 3 3 2 2 3 2 2 1 1 2 5 9
11 9 9 9 15 14 23 25 20 8 11 8 7 8 13 12 18 17 7 7 8 7 8 10 8 8 8 9 12 7 5 8 2 0 4 5 4 4 2 2 3 2 3
Wind_Direction
243 229 207 202 206 197 198 195 199 203 206 210 214 213 193 201 194 184 184 193 194 193 187 188 183 184 186 180 176 173 172 171 166 164 163 158 163 158 161 160 165 164 157
217 222 220 210 210 208 204 199 199 205 211 207 217 216 213 190 191 185 186 193 198 199 186 190 189 191 193 188 180 178 178 176 178 172 170 168 167 170 174 173 171 165 168
219 222 224 224 211 204 208 205 207 214 219 215 216 217 213 189 187 190 183 192 200 199 191 196 196 195 194 195 189 184 183 183 179 176 172 173 180 185 180 182 171 172 174
235 225 221 220 222 207 199 211 200 213 225 219 218 221 217 195 188 187 192 187 189 195 199 202 200 199 196 194 195 195 191 187 184 180 177 188 188 194 190 187 183 177 179
285 244 238 240 216 208 207 211 214 202 209 223 218 213 214 199 194 185 192 194 191 189 192 208 204 202 202 196 198 201 199 196 189 186 184 182 190 196 196 193 186 187 186
336 327 290 250 228 213 216 210 223 220 211 210 219 211 218 214 195 196 192 193 196 193 192 194 204 208 206 203 200 202 206 201 199 194 193 187 190 196 198 197 191 196 196
333 326 322 307 258 234 232 210 217 221 224 214 157 254 248 232 198 204 201 196 197 195 196 193 194 202 209 207 204 204 206 206 205 204 199 195 192 194 204 199 195 202 200
326 320 312 304 306 281 238 231 216 222 226 214 212 183 206 251 237 210 205 207 198 200 192 198 196 197 201 205 208 206 209 211 207 204 202 199 198 193 203 204 198 205 205
322 315 309 308 296 297 273 248 230 219 224 224 215 181 166 223 194 228 220 210 208 199 202 194 198 199 197 200 203 207 207 212 213 206 202 200 201 199 198 205 201 205 209
324 320 311 306 298 284 285 262 246 236 224 220 224 220 150 175 168 266 240 220 208 209 203 199 200 204 202 203 200 202 207 209 212 212 204 201 201 201 201 201 202 205 212
322 321 321 315 309 312 290 278 254 256 225 225 233 213 223 208 183 229 228 204 212 221 217 207 210 207 205 205 207 207 202 205 211 212 206 203 203 204 204 205 204 205 210
317 320 318 315 303 295 289 285 256 237 255 231 208 216 222 213 210 211 193 173 209 211 224 225 226 210 208 206 209 208 203 203 207 210 205 204 203 205 205 206 207 208 210
316 316 316 316 309 302 293 278 271 240 230 234 222 218 216 222 182 188 177 207 300 303 247 227 216 217 215 209 214 208 207 203 204 206 206 202 202 204 206 207 208 210 212
308 311 311 310 308 302 300 273 266 244 218 226 216 215 212 209 189 193 164 177 185 220 232 236 220 216 215 209 214 207 209 203 204 204 205 202 199 202 204 206 208 210 212
308 310 310 308 308 303 300 276 256 231 201 197 207 193 182 182 178 181 191 190 194 214 221 206 221 211 212 213 218 202 217 207 204 204 205 203 201 202 202 204 206 208 210
314 313 314 309 318 343 333 287 250 218 198 195 187 172 177 184 184 185 197 214 217 229 230 190 208 193 197 202 215 202 211 212 204 208 205 203 201 205 201 203 204 206 208
319 317 319 315 339 355 351 351 307 221 189 170 151 167 171 155 165 197 209 212 220 215 225 236 199 204 192 209 211 205 210 211 208 209 205 202 203 203 201 200 202 204 205
320 319 324 327 353 9 2 344 4 345 182 150 141 144 179 189 217 222 225 223 220 215 214 230 195 201 205 212 219 202 203 207 214 206 212 205 205 205 202 201 202 203 204
327 327 333 340 5 13 10 347 8 345 346 41 68 69 71 80 226 218 210 221 221 219 220 209 215 196 214 201 213 216 207 213 206 219 209 207 206 206 205 204 204 204 205
336 339 344 340 7 9 13 355 10 348 335 2 53 61 61 47 46 37 51 38 26 296 191 204 223 196 188 240 221 216 223 231 206 194 203 209 211 213 210 206 207 208 207
344 346 345 349 8 18 7 9 358 359 353 23 29 42 67 64 62 51 40 14 23 2 325 245 225 135 180 205 197 204 219 207 227 166 210 207 204 207 218 218 220 214 209
338 342 352 1 11 19 17 16 11 3 6 13 10 28 31 40 47 48 38 20 3 3 319 294 247 202 204 199 202 202 206 154 240 199 176 216 187 199 214 209 211 209 204
354 356 357 3 359 6 16 14 18 29 357 4 6 29 21 25 29 23 15 357 354 338 293 309 289 284 263 214 196 218 201 197 213 269 167 230 169 213 161 155 174 206 204
356 356 0 3 4 355 9 14 10 15 8 340 19 14 358 7 12 12 360 338 335 338 339 327 307 301 305 313 294 235 220 198 38 69 105 195 110 229 117 58 181 219 212
353 354 356 357 2 359 3 5 9 5 348 6 9 347 352 13 355 1 349 330 332 316 294 303 286 282 289 289 270 255 173 121 228 244 195 140 170 140 254 211 190 197 218
350 348 348 358 359 356 358 1 6 353 353 351 351 354 341 335 343 352 349 327 320 326 328 327 321 311 297 292 285 245 211 213 154 96 200 184 153 158 219 202 189 214 137